Overview Statistics Trail Chart Weather Telemetry Raw packets
 

This is the latest recevied weather packets stored in our database for station/object KN6WGU. If no packets are shown the sender has not sent any weather packets the latest 10 day(s).

<< 50 51 52 53 54 55 56 >>
Time Temp. Humidity Pressure Rain* Wind** Luminosity Snow
1788281566 30.56° C 70% 1009 hPa 0 mm - 315 W/m² -
1788281262 30.56° C 71% 1009 hPa 0 mm - 178 W/m² -
1788280958 30.56° C 71% 1009.2 hPa 0 mm - 247 W/m² -
1788280653 30.56° C 72% 1009.1 hPa 0 mm - 137 W/m² -
1788280352 30.56° C 71% 1009.2 hPa 0 mm - 171 W/m² -
1788280048 30.56° C 69% 1009.2 hPa 0 mm - 179 W/m² -
1788279751 30.56° C 71% 1009.2 hPa 0 mm - 224 W/m² -
1788279446 30.56° C 72% 1009.1 hPa 0 mm - 192 W/m² -
1788279141 30° C 72% 1009.4 hPa 0 mm - 128 W/m² -
1788278837 30° C 73% 1009.4 hPa 0 mm - 112 W/m² -
1788278532 30° C 73% 1009.3 hPa 0 mm - 132 W/m² -
1788278231 30° C 73% 1009.2 hPa 0 mm - 128 W/m² -
1788277926 29.44° C 72% 1009.4 hPa 0 mm - 145 W/m² -
1788277621 29.44° C 72% 1009.3 hPa 0 mm - 91 W/m² -
1788277316 29.44° C 71% 1009.4 hPa 0 mm - 77 W/m² -
1788277012 29.44° C 70% 1009.2 hPa 0 mm - 78 W/m² -
1788276711 29.44° C 71% 1008.9 hPa 0 mm - 89 W/m² -
1788276406 29.44° C 72% 1009.1 hPa 0 mm - 75 W/m² -
1788276104 29.44° C 72% 1009 hPa 0 mm - 69 W/m² -
1788275801 28.89° C 73% 1008.9 hPa 0 mm - 78 W/m² -
1788275500 28.89° C 74% 1009.1 hPa 0 mm - 72 W/m² -
1788275199 28.89° C 74% 1009.4 hPa 0 mm - 70 W/m² -
1788274892 28.89° C 73% 1009.3 hPa 0 mm - 111 W/m² -
1788274590 28.89° C 75% 1009.3 hPa 0 mm - 75 W/m² -
1788274289 28.89° C 73% 1009.6 hPa 0 mm - 91 W/m² -

* Rain latest hour (hover to see other rain measurements)
** Current wind speed in m/s (hover to see current wind gust speed)